Location: Kuffner-Sternwarte
(48.2130°N, 16.2960°E)
Time: 06:01:23
(UTC+02:00)

Envisat - Pass Details

Date: 20 September 2024
Orbit: 762 x 764 km, 98.3° (Epoch: 04 October)

Event Time Altitude Azimuth Distance (km) Brightness Sun altitude
Rises 04:36:35 0° 11° (N) 3,238 6.8 -20.5°
Reaches altitude 10° 04:38:56 10° 7° (N) 2,307 5.9 -20.1°
Maximum altitude 04:43:55 60° 289° (WNW) 875 3.0 -19.4°
Enters shadow 04:45:54 35° 226° (SW) 1,217 3.5 -19.1°
